TimeEDT,TemperatureF,Dew PointF,Humidity,Sea Level PressureIn,VisibilityMPH,Wind Direction,Wind SpeedMPH,Gust SpeedMPH,PrecipitationIn,Events,Conditions,WindDirDegrees,DateUTC
12:53 AM,42.1,33.1,70,30.15,10.0,North,10.4,-,N/A,,Overcast,350,2012-10-28 04:53:00
1:53 AM,42.1,33.1,70,30.13,10.0,North,11.5,-,N/A,,Overcast,350,2012-10-28 05:53:00
2:53 AM,43.0,34.0,71,30.12,10.0,North,15.0,-,N/A,,Overcast,10,2012-10-28 06:53:00
3:53 AM,43.0,35.1,74,30.12,10.0,North,12.7,-,N/A,,Overcast,10,2012-10-28 07:53:00
4:53 AM,43.0,35.1,74,30.11,10.0,North,13.8,-,N/A,,Overcast,350,2012-10-28 08:53:00
5:53 AM,43.0,35.1,74,30.10,10.0,North,11.5,-,N/A,,Overcast,360,2012-10-28 09:53:00
6:39 AM,41.0,33.8,76,30.10,10.0,North,15.0,-,N/A,,Overcast,360,2012-10-28 10:39:00
6:53 AM,42.1,33.1,70,30.11,10.0,North,12.7,-,N/A,,Overcast,360,2012-10-28 10:53:00
7:35 AM,41.0,32.0,70,30.12,10.0,North,18.4,23.0,N/A,,Overcast,360,2012-10-28 11:35:00
7:53 AM,41.0,32.0,70,30.12,10.0,North,15.0,-,N/A,,Overcast,360,2012-10-28 11:53:00
8:53 AM,41.0,32.0,70,30.13,10.0,North,15.0,21.9,N/A,,Overcast,360,2012-10-28 12:53:00
9:53 AM,42.1,33.1,70,30.12,10.0,North,16.1,-,N/A,,Overcast,10,2012-10-28 13:53:00
10:53 AM,44.1,35.1,71,30.12,10.0,NNE,17.3,-,N/A,,Mostly Cloudy,20,2012-10-28 14:53:00
11:53 AM,46.0,36.0,68,30.10,10.0,NNE,18.4,26.5,N/A,,Mostly Cloudy,20,2012-10-28 15:53:00
12:50 PM,46.4,35.6,66,30.09,10.0,North,18.4,-,N/A,,Overcast,10,2012-10-28 16:50:00
12:53 PM,46.0,35.1,66,30.09,10.0,NNE,19.6,25.3,N/A,,Overcast,20,2012-10-28 16:53:00
1:53 PM,46.0,36.0,68,30.05,10.0,North,18.4,28.8,N/A,,Mostly Cloudy,10,2012-10-28 17:53:00
2:53 PM,46.9,34.0,61,30.06,10.0,North,20.7,31.1,N/A,,Overcast,10,2012-10-28 18:53:00
3:53 PM,46.0,34.0,63,30.05,10.0,NNE,20.7,32.2,N/A,,Overcast,20,2012-10-28 19:53:00
4:53 PM,46.0,30.9,56,30.06,10.0,North,20.7,29.9,N/A,,Overcast,10,2012-10-28 20:53:00
5:53 PM,45.0,30.0,56,30.06,10.0,North,19.6,31.1,N/A,,Overcast,360,2012-10-28 21:53:00
6:53 PM,44.1,30.0,58,30.07,10.0,North,21.9,29.9,N/A,,Overcast,360,2012-10-28 22:53:00
7:53 PM,44.1,30.0,58,30.08,10.0,North,18.4,24.2,N/A,,Overcast,360,2012-10-28 23:53:00
8:53 PM,43.0,28.9,58,30.08,10.0,North,21.9,-,N/A,,Overcast,10,2012-10-29 00:53:00
9:53 PM,42.1,30.9,65,30.08,10.0,North,18.4,31.1,N/A,,Overcast,10,2012-10-29 01:53:00
10:53 PM,42.1,28.9,60,30.08,10.0,North,15.0,-,N/A,,Overcast,350,2012-10-29 02:53:00
11:53 PM,39.9,30.9,70,30.07,10.0,North,17.3,27.6,N/A,,Overcast,360,2012-10-29 03:53:00